Regional Weather Roundup
Issued by NWS

Home | Current Version | Previous Version | Text Only | Print | Product List | Glossary Off
Versions: 1 2 3 4 5 6 7 8 9 10 11 12 13 14 15 16 17 18 19 20 21 22 23 24 25 26 27 28 29 30 31 32 33 34 35 36 37 38 39 40 41 42 43 44 45 46 47 48 49 50

000
ASUS43 KMKX 271711
RWRWI

WISCONSIN REGIONAL WEATHER ROUNDUP
NATIONAL WEATHER SERVICE MILWAUKEE/SULLIVAN WI
1100 AM CST THU NOV 27 2014

NOTE: "FAIR" INDICATES FEW OR NO CLOUDS BELOW 12,000 FEET WITH NO
SIGNIFICANT WEATHER AND/OR OBSTRUCTIONS TO VISIBILITY.

WIZ001-002-006>008-014>016-023>028-271800-
NORTHWEST WISCONSIN

CITY           SKY/WX    TMP DP  RH WIND       PRES   REMARKS
SUPERIOR ARPT  SUNNY      3  -7  62 CALM      30.50F
ASHLAND        MOSUNNY    8   1  73 SW6       30.45F WCI  -2
HAYWARD        SUNNY      3  -4  72 NW3       30.42F
SIREN          SUNNY      4  -6  61 CALM      30.48F
CUMBERLAND     SUNNY      3  -6  66 CALM      30.43F
RICE LAKE      SUNNY      3  -6  67 W6        30.46F WCI  -8
CHETEK         SUNNY      4  -5  66 NW5       30.45F WCI  -5
LADYSMITH      SUNNY      5  -2  72 NW6       30.42F WCI  -6
EAU CLAIRE     SUNNY      4  -4  69 W3        30.46F
MENOMONIE      SUNNY      6  -4  63 W3        30.48S
NEW RICHMOND   SUNNY      4  -5  65 NW6       30.48F WCI  -7
OSCEOLA        SUNNY      4  -6  65 N3        30.52F
$$

WIZ003>005-009-010-017-018-271800-
NORTH CENTRAL WISCONSIN

CITY           SKY/WX    TMP DP  RH WIND       PRES   REMARKS
MANITOWISH WTR PTSUNNY    8   1  73 N8        30.32S HAZE    WCI  -5
ARBOR VITAE    MOSUNNY    9   2  75 N6        30.32S WCI  -1
WOODRUFF       MOSUNNY    9   2  75 N6        30.32S WCI  -1
RHINELANDER    PTSUNNY    9   0  67 NW10      30.31S WCI  -5
EAGLE RIVER    PTSUNNY   10  -1  62 NW14G22   30.30S WCI  -7
LAND O LAKES   CLOUDY    10   1  69 NW8       30.30S WCI  -3
PHILLIPS       SUNNY      6  -2  71 NW6       30.35S WCI  -5
TOMAHAWK       MOSUNNY    9   2  73 NW6       30.34F WCI   0
MEDFORD        SUNNY      7  -1  70 N6        30.35S WCI  -3
MERRILL        MOSUNNY   11   2  67 N6        30.34F WCI   2
$$

WIZ029-030-035-036-043>047-271800-
CENTRAL WISCONSIN

CITY           SKY/WX    TMP DP  RH WIND       PRES   REMARKS
WAUSAU         SUNNY     11   2  67 NW9       30.35S WCI  -2
MOSINEE        MOSUNNY   10   7  85 N8        30.37R WCI  -1
MARSHFIELD     SUNNY      8   0  69 NW12      30.37S WCI  -7
STEVENS POINT  PTSUNNY   11   4  72 N5        30.37S WCI   3
WAUPACA        PTSUNNY   20   9  64 NW7       30.38S WCI  11
WAUTOMA        CLOUDY    16   7  67 NW8       30.39S WCI   5
WISC RAPIDS    SUNNY     11   2  67 NW8       30.40S WCI  -1
CAMP DOUGLAS   SUNNY     11   5  79 W12       30.41F WCI  -4
$$

WIZ011>013-019>022-031-037>040-048>050-271800-
NORTHEAST WISCONSIN

CITY           SKY/WX    TMP DP  RH WIND       PRES   REMARKS
ANTIGO         SUNNY     10   1  68 N12       30.31S WCI  -5
SHAWANO        MOSUNNY   18   6  60 NW10      30.36S WCI   6
OCONTO         SUNNY     15   3  58 NW10G16   30.35S WCI   3
STURGEON BAY   MOSUNNY   16   5  62 N17       30.32S WCI   0
GREEN BAY      SUNNY     17   5  59 NW14      30.35S WCI   3
MANITOWOC      PTSUNNY   19  10  68 N14       30.34S WCI   6
APPLETON       PTSUNNY   16   7  67 NW12      30.35R WCI   3
CLINTONVILLE   SUNNY     18   7  62 NW9       30.36S WCI   6
OSHKOSH        CLOUDY    17   8  67 MISG      30.35S
$$

WIZ032>034-041-042-053>061-271800-
SOUTHWEST WISCONSIN

CITY           SKY/WX    TMP DP  RH WIND       PRES   REMARKS
LA CROSSE      SUNNY     10   0  63 NW12      30.49R WCI  -5
SPARTA         SUNNY     10   1  66 NW6       30.46S WCI   0
VIROQUA        SUNNY     10   2  69 NW8       30.40R WCI  -1
BOSCOBEL       SUNNY     17   4  56 W9        30.45R WCI   6
PRAIRIE DU CHI SUNNY     14   2  57 N9        30.46F WCI   2
PLATTEVILLE    PTSUNNY   19  13  80 NW10      30.40R WCI   7
$$

WIZ056-057-062-063-064-067-068-271800-
SOUTH CENTRAL WISCONSIN

CITY           SKY/WX    TMP DP  RH WIND       PRES   REMARKS
REEDSBURG      SUNNY     14   6  72 N8        30.39F WCI   2
BARABOO/DELLS  SUNNY     14   7  72 NW8       30.38S WCI   3
LONE ROCK      SUNNY     21   8  57 NW12      30.42S WCI   9
MINERAL POINT  FLURRIES  21  12  68 NW10      30.37S WCI  10
MADISON        PTSUNNY   19   9  65 NW14      30.38R WCI   6
MIDDLETON      CLOUDY    21  13  70 NW12      30.37F WCI   9
WATERTOWN      CLOUDY    19  13  76 NW12      30.35R WCI   7
MONROE         LGT SNOW  21  16  79 NW9G17    30.35S WCI  11
JANESVILLE     CLOUDY    23  16  74 NW12G17   30.36R WCI  12
$$

WIZ051-052-058>065-066-070>072-271800-
SOUTHEAST WISCONSIN

CITY           SKY/WX    TMP DP  RH WIND       PRES   REMARKS
MILWAUKEE      FLURRIES  24  15  68 NW10      30.33R WCI  14
WAUKESHA       CLOUDY    18  12  79 NW12      30.34S WCI   5
MILWAUKEE/TIMM CLOUDY    21  14  73 NW16      30.34R WCI   7
RACINE         CLOUDY    23  16  74 NW9       30.34S WCI  13
BURLINGTON     CLOUDY    19  13  80 N13       30.34F WCI   5
KENOSHA        PTSUNNY   24  16  71 NW14      30.32F WCI  12
FOND DU LAC    LGT SNOW  18  10  71 NW14      30.35S WCI   4
SHEBOYGAN      CLOUDY    19   9  65 NW15      30.34R WCI   5
WEST BEND      FLURRIES  19  12  73 N10       30.32F WCI   8
JUNEAU         LGT SNOW  18  13  81 NW12      30.35F WCI   5
$$

LSZ147-162-271800-
LAKE SUPERIOR

STATION/POSITION TIME  TEMP    WIND        PRES    WAVE
                       AIR SEA DIR/SP/G            HT/PER
                 (UTC) (F)     (DEG/KT/KT) (MB)    (FT/S)
DEVILS ISLAND    1700    9     360/  8/ 10 1032.6F
PORT WING        1600    7     310/  7/ 10 1031.8S
SAXON HARBOR     1600   10     240/  3/ 10 1030.8R
$$

LMZ867-665-643>646-271800-
LAKE MICHIGAN

STATION/POSITION TIME  TEMP    WIND        PRES    WAVE
                       AIR SEA DIR/SP/G            HT/PER
                 (UTC) (F)     (DEG/KT/KT) (MB)    (FT/S)
CHAMBERS ISLAND  1600   17     310/ 16/ 25 1027.1R
N MID LAKE BUOY  1650   20 42  330/ 19/ 25 1026.2F   5/ 5
NORTHPORT PIER   1608   19     330/ 19     1026.4R
SISTER BAY       1613          330/ 24/ 30   N/A
KEWAUNEE LAKESHO 1600   16     340/ 13/ 17 1026.3R
SHEBOYGAN LAKESH 1700   19 34  340/ 15/ 17 1028.9R
PORT WASHINGTON  1600   22     360/  7/ 13 1027.8R
MILWAUKEE LAKESH 1600   23     310/ 10/ 13   N/A
S MID LAKE BUOY  1650   30 42  300/ 19/ 25 1025.9R   5/ 6
KENOSHA   LAKESH 1700   23     320/ 14/ 20 1026.8S
$$

TC  - TEMPERATURE IN CELSIUS
VSB - VISIBILITY IN STATUTE MILES
WCI - WIND CHILL INDEX
HX  - HEAT INDEX




USA.gov is the U.S. government's official web portal to all federal, state and local government web resources and services.